Regional Weather Roundup
Issued by NWS

Home | Current Version | Previous Version | Graphics & Text | Print | Product List | Glossary On
Versions: 1 2 3 4 5 6 7 8 9 10 11 12 13 14 15 16 17 18 19 20 21 22 23 24 25 26 27 28 29 30 31 32 33 34 35 36 37 38 39 40 41 42 43 44 45 46 47 48 49 50
000
ASUS43 KDTX 292310
RWRMI
MICHIGAN HOURLY REGIONAL WEATHER ROUNDUP
NATIONAL WEATHER SERVICE DETROIT/PONTIAC MI
700 PM EDT SAT AUG 29 2015

NOTE: "FAIR" INDICATES FEW OR NO CLOUDS BELOW 12,000 FEET WITH NO
SIGNIFICANT WEATHER AND/OR OBSTRUCTION TO VISIBILITY.

MIZ047>049-052>055-059>063-066>070-074>076-081>083-300000-
SOUTHEAST LOWER MICHIGAN

CITY           SKY/WX    TMP DP  RH WIND       PRES   REMARKS
ADRIAN         CLOUDY    72  68  87 SE6       30.05F
ALMA           CLOUDY    65  64  96 E6        30.08S FOG
ANN ARBOR      CLOUDY    73  64  73 SE3       30.05R
BAD AXE        CLOUDY    66  63  90 CALM      30.09S
CARO           RAIN      66  65  94 CALM      30.08S
DETROIT CITY   CLOUDY    73  62  68 SE5       30.05F
DETROIT        CLOUDY    75  62  64 CALM      30.05F
FLINT          LGT RAIN  71  66  84 N8        30.08R
GROSSE ILE     CLOUDY    72  64  78 E5        30.03F
HILLSDALE      LGT RAIN  71  69  93 CALM      30.06F
HOWELL         RAIN      68  65  93 CALM      30.07S

CITY           SKY/WX    TMP DP  RH WIND       PRES   REMARKS
JACKSON        CLOUDY    71  68  90 CALM      30.06F
LAMBERTVILLE   DRIZZLE   73  67  81 CALM      30.05F
LANSING        CLOUDY    67  65  93 NE7       30.07F FOG
LAPEER         CLOUDY    69  65  87 CALM      30.08S
MASON          CLOUDY    67  63  86 NE3       30.07F
MT. CLEMENS    CLOUDY    71  65  82 E6        30.04F
PONTIAC        LGT RAIN  70  65  84 E5        30.06S
PORT HOPE        N/A     66  62  87 SE5       30.07R
PORT HURON     LGT RAIN  70  66  88 CALM      30.07S
TRI CITIES     LGT RAIN  67  63  87 S5        30.09F FOG
MIDLAND        CLOUDY    66  64  92 SE3       30.07S
TROY           CLOUDY    73  64  72 NE3       30.07S
SAGINAW HB     LGT RAIN  64  63  94 CALM      30.08F
$$
MIZ043>046-050>051-056>058-064>065-071>073-077>080-300000-
SOUTHWEST LOWER MICHIGAN

CITY           SKY/WX    TMP DP  RH WIND       PRES   REMARKS
BATTLE CREEK   LGT RAIN  68  66  93 E3        30.06F
BENTON HARBOR  LGT RAIN  69  67  93 SE5       30.01F FOG
BIG RAPIDS     CLOUDY    66  63  89 SE6       30.06S
COLDWATER      LGT RAIN  69  68  96 CALM      30.05S
FREMONT        CLOUDY    63  63 100 SE5       30.05F FOG
HOLLAND        CLOUDY    69  65  86 E6        30.04F
GRAND RAPIDS   CLOUDY    67  65  93 E7        30.05F FOG
IONIA          CLOUDY    66  65  97 E7        30.05F
KALAMAZOO      CLOUDY    69  66  90 SE3       30.05S FOG
LUDINGTON      CLOUDY    71  65  82 S5        30.05R
MARSHALL       LGT RAIN  68  66  94 CALM      30.06S
MOUNT PLEASANT CLOUDY    67  64  91 S5        30.07S
MUSKEGON       CLOUDY    66  62  87 E7        30.04F FOG
SOUTH HAVEN    CLOUDY    68  66  91 SE5       30.02S
$$
MIZ016>042-300000-
NORTHERN LOWER MICHIGAN

CITY           SKY/WX    TMP DP  RH WIND       PRES   REMARKS
ALPENA         SUNNY     70  60  70 S8        30.06S
BEAVER ISLAND  MOSUNNY   68  61  78 W9        30.05F
BELLAIRE       CLOUDY    72  60  65 CALM      30.04S
CADILLAC       MOSUNNY   68  59  72 S6        30.06S
CHARLEVOIX     SUNNY     70  61  72 W8        30.07S
FRANKFORT      PTSUNNY   70  62  77 NW6       30.05S
GAYLORD        CLOUDY    71  59  65 SW5       30.06F
GRAYLING       PTSUNNY   67  60  76 S3        30.08S
HARBOR SPRINGS MOSUNNY   71  60  70 CALM      30.04F
HOUGHTON LAKE  CLOUDY    68  59  73 S5        30.07F
MANISTEE       CLOUDY    66  57  72 W6        30.05S
OSCODA         MOSUNNY   69  62  78 SE5       30.07S
PELLSTON       CLOUDY    72  58  61 W7        30.05F
ROGERS CITY    CLOUDY    66  63  89 CALM      30.06S
TRAVERSE CITY  CLOUDY    72  61  68 CALM      30.04S
$$
MIZ007>008-015-300000-
EASTERN UPPER MICHIGAN

CITY           SKY/WX    TMP DP  RH WIND       PRES   REMARKS
KINROSS        CLOUDY    70  61  73 W8        30.03F
MACKINAC ISLAN SUNNY     67  57  70 W8        30.05S
NEWBERRY       CLOUDY    68  61  77 S10       30.02S
S. S. MARIE    PTSUNNY   70  60  70 SW9       30.02S
MUNISING         N/A     71  60  68 NW3       30.00R
$$
MIZ004>006-011>014-085-300000-
CENTRAL UPPER MICHIGAN

CITY           SKY/WX    TMP DP  RH WIND       PRES   REMARKS
MANISTIQUE     SUNNY     66  61  85 S8        30.03S
ESCANABA       SUNNY     66  61  82 S9        30.02S
MENOMINEE      MOSUNNY   68  59  73 S8        30.03S
SAWYER-GWINN   MOSUNNY   77  57  50 SW7       30.01R
$$
MIZ001>003-009>011-084-300000-
WESTERN UPPER MICHIGAN

CITY           SKY/WX    TMP DP  RH WIND       PRES   REMARKS
IRON MOUNTAIN  SUNNY     74  62  66 SE8       30.01S
HOUGHTON       SUNNY     72  57  59 W10       29.99S
COPPER HARBOR    N/A     70  59  68 N12       29.98S
IRONWOOD       SUNNY     73  63  68 SW7       29.98S
$$

ABBREVIATIONS USED IN REMARKS
   TC - TEMPERATURE IN CELSIUS
  WCI - WIND CHILL INDEX
   HX - HEAT INDEX
  VSB - VISIBILITY




USA.gov is the U.S. government's official web portal to all federal, state and local government web resources and services.